Whiteman AFB, MO

4:28 AM CDT on April 28, 2017 (GMT -0500)
Whiteman Air Force Base

Weather History for KSZL - September, 2013

Change the Weather History Date:

Saturday, September 14, 2013

  Actual Average Record
Temperature  
Mean Temperature 64 °F -  
Max Temperature 78 °F 78 °F 87 °F (2004)
Min Temperature 49 °F 58 °F 44 °F (1996)
Degree Days  
Heating Degree Days 2    
Growing Degree Days 14 (Base 50)    
Moisture  
Dew Point 48 °F    
Average Humidity 67    
Maximum Humidity 90    
Minimum Humidity 34    
Precipitation  
Precipitation 0.00 in - - ()
Sea Level Pressure  
Sea Level Pressure 30.08 in    
Wind  
Wind Speed 4 mph (SE)    
Max Wind Speed 10 mph    
Max Gust Speed -    
Visibility 9 miles    
Events      
Averages and records for this station are not official NWS values.
T = Trace of Precipitation, MM = Missing Value Source: NWS Daily Summary

Daily Weather History Graph

Daily Weather History Graph

Search for Another Location

Airport or City:

Trip Planner

Search our weather history database for the weather conditions in past years. The results will help you decide how hot, cold, wet, or windy it might be!

Date:

Astronomy

Sep. 14, 2013 Rise Set
Actual Time 6:55 AM CDT 7:23 PM CDT
Civil Twilight 6:28 AM CDT 7:50 PM CDT
Nautical Twilight 5:56 AM CDT 8:21 PM CDT
Astronomical Twilight 5:24 AM CDT 8:53 PM CDT
Moon 4:03 PM CDT (9/14) 1:30 AM CDT (9/14)
Length of Visible Light 13h 21m
Length of Day
12h 28m
Waxing Gibbous, 72% of the Moon is Illuminated
Sep 14
Waxing Gibbous
Sep 19
Full
Sep 26
Last Quarter
Oct 4
New
Oct 11
First Quarter

Hourly Weather History & Observations

Time (CDT) Temp. Dew Point Humidity Pressure Visibility Wind Dir Wind Speed Gust Speed Precip Events Conditions
12:58 AM 55.6 °F 47.3 °F 74% 30.09 in 10.0 mi ESE 4.6 mph - N/A   Clear
1:58 AM 54.3 °F 47.3 °F 77% 30.10 in 10.0 mi ESE 5.8 mph - N/A   Clear
2:58 AM 53.2 °F 46.6 °F 78% 30.09 in 10.0 mi SE 2.3 mph - N/A   Clear
3:03 AM 53.6 °F 46.4 °F 77% 30.10 in 9.0 mi SSE 2.3 mph - N/A   Clear
3:18 AM 53.6 °F 46.4 °F 77% 30.10 in 5.0 mi SW 2.3 mph - N/A   Haze
3:28 AM 53.6 °F 46.4 °F 77% 30.09 in 6.0 mi SSW 3.5 mph - N/A   Haze
3:48 AM 50.0 °F 46.4 °F 87% 30.09 in 10.0 mi ESE 1.2 mph - N/A   Clear
3:58 AM 50.7 °F 47.1 °F 87% 30.09 in 10.0 mi ESE 2.3 mph - N/A   Clear
4:38 AM 50.0 °F 46.4 °F 87% 30.10 in 8.0 mi Calm Calm - N/A   Clear
4:53 AM 50.0 °F 46.4 °F 87% 30.10 in 10.0 mi ENE 2.3 mph - N/A   Clear
4:58 AM 49.1 °F 46.2 °F 90% 30.10 in 10.0 mi ENE 2.3 mph - N/A   Clear
5:18 AM 50.0 °F 46.4 °F 87% 30.10 in 9.0 mi Calm Calm - N/A   Clear
5:58 AM 50.4 °F 45.7 °F 84% 30.11 in 7.0 mi Calm Calm - N/A   Clear
6:13 AM 50.0 °F 46.4 °F 87% 30.11 in 10.0 mi ENE 1.2 mph - N/A   Clear
6:23 AM 50.0 °F 46.4 °F 87% 30.12 in 9.0 mi Calm Calm - N/A   Clear
6:38 AM 50.0 °F 44.6 °F 82% 30.11 in 9.0 mi East 1.2 mph - N/A   Clear
6:58 AM 50.0 °F 45.3 °F 84% 30.12 in 9.0 mi Calm Calm - N/A   Partly Cloudy
7:58 AM 52.5 °F 46.9 °F 81% 30.14 in 10.0 mi East 2.3 mph - N/A   Partly Cloudy
8:58 AM 57.0 °F 49.1 °F 75% 30.15 in 10.0 mi ESE 5.8 mph - N/A   Partly Cloudy
9:58 AM 64.8 °F 49.6 °F 58% 30.14 in 10.0 mi South 10.4 mph - N/A   Partly Cloudy
10:58 AM 70.0 °F 49.8 °F 49% 30.13 in 10.0 mi South 6.9 mph - N/A   Partly Cloudy
11:58 AM 73.2 °F 50.0 °F 44% 30.12 in 10.0 mi Variable 4.6 mph - N/A   Partly Cloudy
12:58 PM 75.2 °F 49.8 °F 41% 30.10 in 10.0 mi SE 5.8 mph - N/A   Partly Cloudy
1:58 PM 77.0 °F 49.6 °F 38% 30.07 in 10.0 mi Variable 3.5 mph - N/A   Scattered Clouds
2:58 PM 76.8 °F 48.0 °F 36% 30.04 in 10.0 mi ESE 6.9 mph - N/A   Scattered Clouds
3:58 PM 77.5 °F 46.8 °F 34% 30.02 in 10.0 mi South 4.6 mph - N/A   Partly Cloudy
4:58 PM 78.4 °F 47.8 °F 34% 30.00 in 10.0 mi Variable 6.9 mph - N/A   Scattered Clouds
5:58 PM 78.1 °F 48.7 °F 36% 30.00 in 10.0 mi SSE 6.9 mph - N/A   Clear
6:58 PM 70.9 °F 49.5 °F 47% 30.00 in 10.0 mi SE 5.8 mph - N/A   Clear
7:58 PM 65.8 °F 49.3 °F 55% 29.99 in 10.0 mi SE 5.8 mph - N/A   Clear
8:58 PM 64.2 °F 49.5 °F 59% 30.00 in 10.0 mi SE 6.9 mph - N/A   Clear
9:58 PM 64.0 °F 49.3 °F 59% 29.99 in 10.0 mi SSE 6.9 mph - N/A   Clear
10:58 PM 64.0 °F 49.8 °F 60% 29.98 in 10.0 mi SSE 8.1 mph - N/A   Clear
11:58 PM 63.0 °F 51.4 °F 66% 29.99 in 10.0 mi South 5.8 mph - N/A   Clear